Location: Kitt Peak
(31.9633°N, 111.6000°W)
Time: 10:07:44
(UTC-07:00)

Amateur Radio Satellites - All Passes

Search period start: 31 October 2014 09:37
Search period end: 01 November 2014 09:37
Location: Kitt Peak, 31.9633°N, 111.6000°W

Satellite Date Start Highest point End Downlink Frequencies (MHz)
Time Altitude Azimuth
UKube-1 31 Oct 10:09:02 10:13:24 88° 103° (ESE) 10:17:45 145.840 MHz, 145.915 MHz
HO-68 31 Oct 10:15:46 10:22:31 46° 291° (WNW) 10:29:14 435.675 MHz FM
PCSat 31 Oct 10:16:46 10:19:43 15° 52° (NE) 10:22:39 145.825 MHz
ZACube-1 31 Oct 10:18:05 10:22:00 40° 99° (E) 10:25:54 437.345 MHz
Oscar 11 31 Oct 10:44:29 10:48:22 34° 287° (WNW) 10:52:15 145.825 FM, Beacon 2401.500 USB
SO-50 31 Oct 10:47:20 10:51:45 66° 299° (WNW) 10:56:19 436.795 FM
ISS 31 Oct 10:49:02 10:49:59 11° 330° (NNW) 10:50:57 145.800 FM
FUNcube-1 31 Oct 11:00:52 11:04:56 55° 285° (WNW) 11:08:58 145.950 - 145.970 MHz USB
KITSAT 1 31 Oct 11:26:41 11:34:08 40° 304° (NW) 11:41:38 435.175 FM
UOSAT-12 31 Oct 11:31:53 11:35:47 28° 111° (ESE) 11:39:46 437.025 FM, 437.400 FM
Sapphire 31 Oct 11:36:30 11:41:55 69° 64° (ENE) 11:47:18 437.095 MHz 1200 baud AX-25 AFSK
ZACube-1 31 Oct 11:56:17 11:58:00 12° 292° (WNW) 11:59:42 437.345 MHz
PCSat 31 Oct 11:58:13 12:03:36 68° 248° (WSW) 12:08:57 145.825 MHz
Oscar 16 31 Oct 12:09:29 12:12:44 17° 67° (ENE) 12:16:00 437.025 USB, Beacon 2401.1428
Uribyol 2 31 Oct 12:42:55 12:45:46 15° 65° (ENE) 12:48:38 436.500 FM
AO-Echo 31 Oct 12:44:08 12:47:27 18° 67° (ENE) 12:50:51 ?
ITAMSAT 1 31 Oct 12:50:28 12:53:41 17° 66° (ENE) 12:56:56 435.822 SSB
Oscar 19 31 Oct 12:59:34 13:04:35 56° 74° (ENE) 13:09:35 437.125 CW, 437.150 USB
UOSAT-12 31 Oct 13:12:01 13:15:51 25° 306° (NW) 13:19:45 437.025 FM, 437.400 FM
Sapphire 31 Oct 13:22:57 13:24:39 11° 257° (WSW) 13:26:22 437.095 MHz 1200 baud AX-25 AFSK
JAS-1B 31 Oct 13:23:02 13:28:55 83° 76° (ENE) 13:34:36 435.800 - 435.900 CW/SSB
AO-27 31 Oct 13:36:00 13:41:01 50° 73° (ENE) 13:46:04 436.795 MHz FM
Oscar 16 31 Oct 13:46:45 13:51:41 45° 260° (W) 13:56:36 437.025 USB, Beacon 2401.1428
Saudisat 1A 31 Oct 13:50:39 13:53:55 20° 53° (NE) 13:57:10 436.775 MHz
Gurwin Techsat 1B 31 Oct 13:52:10 13:56:58 36° 71° (ENE) 14:01:47 435.225 FM
TMSAT-1 31 Oct 13:58:45 14:03:19 30° 70° (ENE) 14:07:53 436.925 FM
Uribyol 2 31 Oct 14:19:38 14:24:43 54° 259° (W) 14:29:51 436.500 FM
AO-Echo 31 Oct 14:21:12 14:25:49 41° 262° (W) 14:30:37 ?
ITAMSAT 1 31 Oct 14:27:43 14:32:44 48° 260° (W) 14:37:47 435.822 SSB
Oscar 19 31 Oct 14:41:53 14:44:10 13° 267° (W) 14:46:27 437.125 CW, 437.150 USB
AO-7 31 Oct 14:50:25 14:57:30 33° 63° (ENE) 15:04:34 29.400 - 29.500 MHz
AO-27 31 Oct 15:17:50 15:20:44 15° 266° (W) 15:23:39 436.795 MHz FM
Saudisat 1A 31 Oct 15:29:33 15:33:31 33° 248° (WSW) 15:37:28 436.775 MHz
Gurwin Techsat 1B 31 Oct 15:32:55 15:36:56 22° 265° (W) 15:40:58 435.225 FM
TMSAT-1 31 Oct 15:38:46 15:43:08 26° 264° (W) 15:47:32 436.925 FM
JAS-2 31 Oct 15:40:35 15:43:26 13° 59° (ENE) 15:46:25 435.800 - 435.900 CW/SSB, 435.910 FM
ISS 31 Oct 15:43:32 15:44:56 12° 31° (NNE) 15:46:19 145.800 FM
Uosat F 31 Oct 16:12:18 16:17:19 89° 76° (ENE) 16:22:23 435.120 FM
AO-7 31 Oct 16:42:04 16:49:55 47° 258° (WSW) 16:57:50 29.400 - 29.500 MHz
OPAL 31 Oct 16:48:17 16:51:37 18° 97° (E) 16:54:56 ?
Hamsat 31 Oct 17:15:51 17:19:53 49° 75° (ENE) 17:23:55 145.90 MHz
ISS 31 Oct 17:18:37 17:21:56 70° 226° (SW) 17:25:15 145.800 FM
JAS-2 31 Oct 17:21:13 17:27:17 85° 257° (WSW) 17:34:14 435.800 - 435.900 CW/SSB, 435.910 FM
Oscar 10/S400 31 Oct 17:44:24 18:07:57 76° 188° (S) 03:55:34 145.825 - 145.975 CW/USB, Beacon 145.810 USB
SO-67 31 Oct 17:57:55 17:59:32 13° 71° (ENE) 18:01:10 435.3500 MHz FM
OPAL 31 Oct 18:26:00 18:30:34 39° 290° (WNW) 18:35:08 ?
STRAND 1 31 Oct 18:43:56 18:48:41 37° 99° (E) 18:53:23 ?
RS-15 31 Oct 18:47:01 18:54:17 20° 102° (ESE) 19:01:25 29.354 - 29.394 USB, Beacon 29.352 USB
HO-68 31 Oct 18:55:45 18:58:31 13° 58° (ENE) 19:01:17 435.675 MHz FM
SO-50 31 Oct 19:23:41 19:27:59 31° 56° (NE) 19:32:18 436.795 FM
KITSAT 1 31 Oct 19:24:42 19:32:22 45° 58° (ENE) 19:39:59 435.175 FM
SO-67 31 Oct 19:29:25 19:32:14 24° 263° (W) 19:35:04 435.3500 MHz FM
MaSat-1 31 Oct 20:21:09 20:22:33 12° 105° (ESE) 20:23:55 437.345 MHz
STRAND 1 31 Oct 20:23:49 20:27:34 21° 292° (WNW) 20:31:18 ?
HO-68 31 Oct 20:37:58 20:45:07 83° 74° (ENE) 20:52:20 435.675 MHz FM
RS-15 31 Oct 20:54:13 21:05:18 81° 298° (WNW) 21:16:16 29.354 - 29.394 USB, Beacon 29.352 USB
UKube-1 31 Oct 20:59:40 21:03:43 39° 73° (ENE) 21:07:47 145.840 MHz, 145.915 MHz
SO-50 31 Oct 21:04:25 21:08:23 25° 250° (WSW) 21:12:22 436.795 FM
ZACube-1 31 Oct 21:10:19 21:13:37 20° 70° (ENE) 21:16:52 437.345 MHz
KITSAT 1 31 Oct 21:20:28 21:27:28 34° 253° (WSW) 21:34:28 435.175 FM
Oscar 11 31 Oct 21:34:00 21:38:19 83° 258° (WSW) 21:42:39 145.825 FM, Beacon 2401.500 USB
UOSAT-12 31 Oct 21:45:17 21:49:59 75° 62° (ENE) 21:54:34 437.025 FM, 437.400 FM
FUNcube-1 31 Oct 21:51:42 21:56:12 62° 76° (ENE) 22:00:36 145.950 - 145.970 MHz USB
MaSat-1 31 Oct 21:53:57 21:57:40 37° 294° (WNW) 22:01:05 437.345 MHz
HO-68 31 Oct 22:30:17 22:33:25 13° 268° (W) 22:36:34 435.675 MHz FM
UKube-1 31 Oct 22:37:52 22:40:00 13° 266° (W) 22:42:10 145.840 MHz, 145.915 MHz
ZACube-1 31 Oct 22:45:48 22:49:46 29° 263° (W) 22:53:42 437.345 MHz
RS-15 31 Oct 23:11:57 23:19:32 21° 322° (NW) 23:27:09 29.354 - 29.394 USB, Beacon 29.352 USB
AO-40 31 Oct 23:13:09 23:57:33 13° 246° (WSW) 00:56:40 Beacon 2401.320
Sapphire 01 Nov 00:32:10 00:35:41 18° 105° (ESE) 00:39:12 437.095 MHz 1200 baud AX-25 AFSK
PCSat 01 Nov 00:52:22 00:57:05 32° 108° (ESE) 01:01:50 145.825 MHz
JAS-1B 01 Nov 01:10:09 01:17:03 35° 99° (E) 01:24:58 435.800 - 435.900 CW/SSB
Oscar 19 01 Nov 01:16:31 01:20:57 29° 97° (E) 01:25:22 437.125 CW, 437.150 USB
PANSAT 01 Nov 01:40:19 01:42:02 13° 156° (SSE) 01:43:45 not established
AO-27 01 Nov 01:54:31 01:58:54 27° 97° (E) 02:03:15 436.795 MHz FM
Oscar 16 01 Nov 02:03:08 02:08:16 86° 284° (WNW) 02:13:24 437.025 USB, Beacon 2401.1428
Sapphire 01 Nov 02:13:29 02:18:39 47° 299° (WNW) 02:23:53 437.095 MHz 1200 baud AX-25 AFSK
Gurwin Techsat 1B 01 Nov 02:13:52 02:17:53 22° 95° (E) 02:21:52 435.225 FM
TMSAT-1 01 Nov 02:20:14 02:23:44 18° 94° (E) 02:27:14 436.925 FM
AO-Echo 01 Nov 02:32:55 02:38:15 85° 284° (WNW) 02:43:28 ?
PCSat 01 Nov 02:35:50 02:40:25 28° 303° (WNW) 02:45:03 145.825 MHz
Uribyol 2 01 Nov 02:37:16 02:42:28 82° 103° (ESE) 02:47:38 436.500 FM
ITAMSAT 1 01 Nov 02:45:23 02:50:37 89° 284° (WNW) 02:55:49 435.822 SSB
Oscar 19 01 Nov 02:55:58 03:00:07 26° 291° (WNW) 03:04:16 437.125 CW, 437.150 USB
JAS-1B 01 Nov 03:00:33 03:07:27 43° 289° (WNW) 03:15:32 435.800 - 435.900 CW/SSB
AO-7 01 Nov 03:00:41 03:03:15 12° 92° (E) 03:05:49 29.400 - 29.500 MHz
PANSAT 01 Nov 03:18:13 03:21:42 33° 167° (SSE) 03:25:12 not established
AO-27 01 Nov 03:33:53 03:38:17 28° 290° (WNW) 03:42:41 436.795 MHz FM
RS-15 01 Nov 03:50:43 03:58:12 20° 37° (NE) 04:05:49 29.354 - 29.394 USB, Beacon 29.352 USB
Gurwin Techsat 1B 01 Nov 03:53:02 03:57:52 36° 289° (WNW) 04:02:40 435.225 FM
Saudisat 1A 01 Nov 03:53:29 03:55:56 15° 109° (ESE) 03:58:23 436.775 MHz
OPAL 01 Nov 03:58:39 04:02:20 21° 66° (ENE) 04:06:00 ?
TMSAT-1 01 Nov 03:58:47 04:03:47 44° 288° (WNW) 04:08:46 436.925 FM
Uosat F 01 Nov 04:25:12 04:29:57 41° 99° (E) 04:34:39 435.120 FM
JAS-2 01 Nov 04:37:06 04:42:47 22° 92° (E) 04:48:13 435.800 - 435.900 CW/SSB, 435.910 FM
AO-7 01 Nov 04:48:31 04:56:54 82° 106° (ESE) 05:05:15 29.400 - 29.500 MHz
PANSAT 01 Nov 04:57:52 05:01:36 50° 179° (S) 05:05:20 not established
Hamsat 01 Nov 05:07:55 05:09:53 13° 94° (E) 05:11:52 145.90 MHz
Saudisat 1A 01 Nov 05:30:59 05:35:06 40° 302° (WNW) 05:39:15 436.775 MHz
OPAL 01 Nov 05:36:10 05:40:55 38° 259° (W) 05:45:37 ?
STRAND 1 01 Nov 05:55:14 05:59:46 33° 71° (ENE) 06:04:20 ?
RS-15 01 Nov 06:01:27 06:12:45 74° 61° (ENE) 06:24:32 29.354 - 29.394 USB, Beacon 29.352 USB
Uosat F 01 Nov 06:04:58 06:08:21 18° 293° (WNW) 06:11:44 435.120 FM
JAS-2 01 Nov 06:20:25 06:28:11 65° 287° (WNW) 06:35:31 435.800 - 435.900 CW/SSB, 435.910 FM
PANSAT 01 Nov 06:37:59 06:41:31 35° 192° (SSW) 06:45:02 not established
Hamsat 01 Nov 06:42:00 06:45:55 38° 286° (WNW) 06:49:52 145.90 MHz
AO-7 01 Nov 06:43:23 06:48:41 19° 303° (WNW) 06:54:00 29.400 - 29.500 MHz
SO-67 01 Nov 06:56:53 06:59:53 27° 97° (E) 07:02:52 435.3500 MHz FM
STRAND 1 01 Nov 07:34:56 07:38:55 23° 264° (W) 07:42:57 ?
MaSat-1 01 Nov 07:42:46 07:45:05 53° 250° (WSW) 07:47:21 437.345 MHz
JAS-2 01 Nov 08:10:41 08:11:38 10° 303° (WNW) 08:12:34 435.800 - 435.900 CW/SSB, 435.910 FM
HO-68 01 Nov 08:12:41 08:17:42 20° 95° (E) 08:22:42 435.675 MHz FM
RS-15 01 Nov 08:15:38 08:24:05 25° 257° (WSW) 08:32:50 29.354 - 29.394 USB, Beacon 29.352 USB
PANSAT 01 Nov 08:19:09 08:21:12 14° 203° (SSW) 08:23:15 not established
ISS 01 Nov 08:20:45 08:23:49 37° 131° (SE) 08:26:54 145.800 FM
SO-67 01 Nov 08:31:23 08:32:31 11° 290° (WNW) 08:33:39 435.3500 MHz FM
Oscar 11 01 Nov 09:26:59 09:30:34 25° 97° (E) 09:34:08 145.825 FM, Beacon 2401.500 USB
